www.pogodaiklimat.ru

Погода и климат >> Архив погоды >> Россия >> Краснодарский край >> Геленджик


АРХИВ ПОГОДЫ в Геленджике

Время (UTC), дата Ветер
(напр.,м/с)
 
Видим.   Явления Облачность Т
(С)
Тd
(С)
f
(%)
Тe
(С)
Тes
(С)
Комфортность P
(гПа)
Po
(гПа)
Тmin
(С)
Tmax
(С)
R
(мм)
R24
(мм)
S
(см)
18 13.07 С 1 10 км 3/3 600 м
[Cu hum]
+20.1 +13.9 67 +23 +23 комфорт 1011.7 1009.8
21 13.07 СВ 2 10 км 3/3 600 м
[Cu hum]
+18.4 +13.3 72 +19 +19 прохладно 1011.6 1009.7
00 14.07 СВ 1 10 км ясно +16.3 +13.3 82 +17 +17 прохладно 1010.8 1008.9
03 14.07 СВ 2 50 км 1/1 600 м
[Cu hum]
+18.0 +14.0 77 +19 +19 прохладно 1010.6 1008.7 +16.3
06 14.07 ЮВ 1 50 км 6/3 600 м
[Cu med, cong Ac trans]
+23.1 +15.0 60 +27 +33 душно 1010.6 1008.7
09 14.07 З 1 50 км 6/4 600 м
[Cu med, cong Ci fib]
+24.6 +15.9 58 +28 +40 душно 1009.8 1007.9
12 14.07 Ю 1 10 км 10/4 600 м
[Cu med, cong Cs]
+25.0 +15.2 55 +28 +36 жарко 1009.3 1007.4
15 14.07 З 2 50 км 10/3 600 м
[Sc Ac trans Ci fib]
+23.7 +15.6 60 +27 +28 жарко 1008.1 1006.2 +25.9
18 14.07 СВ 1 10 км 10/3 1000 м
[Sc Ac trans Cs]
+21.5 +15.3 68 +25 +25 комфорт 1007.7 1005.8
21 14.07 штиль 0 10 км 9/0
[Ac trans Cc]
+21.3 +13.4 61 +24 +24 комфорт 1006.3 1004.4
00 15.07 СВ 4
{11}
10 км 3/0
[Cc]
+22.7 +11.6 49 +25 +25 комфорт 1004.0 1002.1
03 15.07 В 3 50 км 4/0
[Ac trans]
+23.7 +8.9 39 +24 +25 комфорт 1002.2 1000.3 +21.0
06 15.07 СВ 2 50 км 10/0
[Ac trans Cc]
+26.6 +9.7 35 +27 +33 жарко 1002.2 1000.4
09 15.07 СВ 1 50 км 10/10 1000 м
[Cb cap]
+24.4 +15.1 56 +27 +27 жарко 1003.4 1001.5
12 15.07 В 1 10 км слаб. ливневой дождь 10/10 600 м
[Cb cap]
+18.3 +15.6 84 +20 +20 очень
холодно
1005.3 1003.4
15 15.07 В 1 10 км в посл. час ливневой дождь 10/10 600 м
[Cb cap]
+18.9 +15.8 82 +21 +21 комфорт 1004.3 1002.4 +26.6 7
18 15.07 В 1 10 км {ливн. осадки} 10/10 600 м
[Cb cap]
+19.1 +15.8 81 +22 +22 комфорт 1005.7 1003.8
21 15.07 ЮЗ 1 10 км гроза, ливневой дождь 10/10 600 м
[Cb cap]
+18.2 +16.2 88 +20 +20 прохладно 1005.5 1003.6
00 16.07 СВ 2 10 км {гроза, ливн. осадки} 10/10 600 м
[Cb cap]
+17.6 +16.7 94 +18 +18 прохладно 1004.9 1003.0
03 16.07 ЮВ 2 10 км {ливн. осадки} 9/8 600 м
[Cb cap Ac trans Cc]
+19.6 +16.6 83 +22 +22 комфорт 1005.0 1003.1 +17.6 12
06 16.07 СЗ 1 10 км слаб. ливневой дождь 10/10 600 м
[Cb cap]
+19.9 +16.9 83 +24 +24 комфорт 1006.0 1004.1
09 16.07 ЮЗ 2 50 км {ливн. осадки} 4/3 600 м
[Cb cap Cc]
+23.2 +16.2 65 +28 +40 душно 1007.3 1005.4
12 16.07 ЮЗ 3 20 км в посл. час ливневой дождь 8/4 600 м
[Cb cap Ac trans Cc]
+23.8 +16.7 64 +27 +32 жарко 1008.4 1006.5
15 16.07 ЮЗ 2 20 км {ливн. осадки} 6/4 600 м
[Cb cap Cc]
+23.5 +16.9 66 +27 +29 душно 1009.4 1007.5 +24.0 3
18 16.07 С 1 10 км {ливн. осадки} 8/5 600 м
[Cb cap Ac trans Cc]
+22.5 +17.3 72 +27 +27 душно 1010.3 1008.4
21 16.07 ЮВ 2 10 км 6/4 600 м
[Cu Sc Cc]
+22.7 +17.6 73 +28 +28 душно 1010.0 1008.1
00 17.07 В 1 10 км 8/8 600 м
[Sc]
+20.9 +17.1 79 +26 +26 душно 1009.6 1007.7
03 17.07 В 1 50 км 8/5 600 м
[Cu Sc Ac trans Cc]
+20.5 +17.6 83 +25 +25 комфорт 1009.3 1007.4 +19.6
06 17.07 ЮВ 1 50 км 4/3 600 м
[Cu hum Ac trans Ci fib]
+23.9 +17.6 68 +28 +35 душно 1008.8 1006.9
09 17.07 ЮЗ 2 50 км 4/3 600 м
[Cb calv Ci fib]
+25.0 +18.3 66 +29 +42 душно 1008.1 1006.2
12 17.07 З 4 50 км 8/3 600 м
[Cu med, cong Ac As Ci fib]
+25.9 +18.3 63 +31 +35 очень
душно
1007.2 1005.4
15 17.07 СЗ 1 20 км 4/3 600 м
[Cu hum Ac trans]
+26.4 +18.1 60 +31 +33 душно 1006.2 1004.4 +26.9
18 17.07 СЗ 2 10 км ясно +24.7 +15.8 58 +28 +28 душно 1006.4 1004.5
21 17.07 СВ 4 10 км ясно +24.4 +14.0 52 +27 +27 жарко 1005.8 1003.9
00 18.07 С 6-11
{12}
10 км 4/4 1000 м
[Sc diur, vesp]
+24.5 +11.9 45 +26 +26 жарко 1005.3 1003.4
03 18.07 СВ 6-10
{14}
20 км 10/5 1000 м
[Sc diur, vesp Ac As Ci sp]
+23.7 +13.6 53 +26 +26 жарко 1005.3 1003.4 +23.6
06 18.07 СВ 5 50 км 10/6 600 м
[Cu Sc Ac As]
+24.5 +13.4 50 +27 +27 жарко 1005.1 1003.2
09 18.07 С 4 50 км 10/8 600 м
[Cb cap Ac trans Cc]
+27.8 +15.4 47 +31 +32 душно 1006.7 1004.9
12 18.07 ЮЗ 1 50 км 10/6 1000 м
[Cu Sc Ac As Cc]
+25.7 +19.5 69 +31 +34 очень
душно
1007.6 1005.8
15 18.07 ЮЗ 1 50 км 8/4 1000 м
[Sc Ac trans Cc]
+25.5 +19.9 71 +31 +32 очень
душно
1008.6 1006.8 +28.2
18 18.07 С 1 10 км 6/4 600 м
[Sc Ac trans Cc]
+23.6 +16.9 66 +27 +27 жарко 1009.9 1008.0
21 18.07 С 2 10 км 4/3 600 м
[Sc Ac trans Cc]
+22.7 +16.3 67 +27 +27 душно 1011.1 1009.2
00 19.07 С 1 10 км 8/6 600 м
[Sc Ac trans Cc]
+22.5 +16.7 70 +27 +27 душно 1011.7 1009.8
03 19.07 С 2 50 км 8/6 600 м
[Sc Ac trans Cc]
+23.0 +15.2 61 +27 +27 душно 1012.8 1010.9 +21.4
06 19.07 ЮВ 1 50 км 8/0
[Ac trans Cc]
+26.6 +13.7 45 +29 +36 жарко 1013.4 1011.5
09 19.07 СВ 5
{13}
50 км 6/3 1000 м
[Cu hum Ac trans Cc]
+29.1 +14.4 41 +31 +37 жарко 1013.2 1011.4
12 19.07 С 2 50 км 4/3 1000 м
[Cu hum Ac trans Cc]
+30.1 +16.2 43 +33 +42 душно 1013.8 1012.0
15 19.07 С 5 50 км 6/5 1000 м
[Cu Sc Ac trans Ci fib]
+27.8 +13.9 42 +30 +30 жарко 1014.6 1012.7 +30.4
18 19.07 СЗ 1 10 км 8/8 1000 м
[Cu Sc]
+24.3 +9.6 39 +25 +25 комфорт 1016.2 1014.3
21 19.07 СВ 1 10 км 6/0
[Ac trans Cc]
+19.9 +11.2 57 +22 +22 комфорт 1016.7 1014.8
00 20.07 С 3 10 км 6/0
[Ac trans Cc]
+23.0 +10.5 45 +25 +25 комфорт 1016.7 1014.8
03 20.07 С 6-10
{13}
50 км 3/3 1000 м
[Cu hum Ci fib]
+23.9 +11.6 46 +25 +26 комфорт 1016.7 1014.8 +19.1
06 20.07 С 5-10
{10}
50 км 4/0
[Ac trans]
+27.1 +9.7 34 +28 +31 жарко 1017.1 1015.2
09 20.07 С 5
{11}
50 км 3/1 1000 м
[Cu hum Ac trans]
+29.8 +10.8 31 +30 +38 жарко 1016.5 1014.7
12 20.07 С 4 50 км ясно +31.2 +12.2 31 +32 +41 жарко 1015.9 1014.1
15 20.07 С 2 50 км ясно +30.4 +13.7 36 +32 +34 жарко 1015.1 1013.3 +31.9

 

Местоположение метеостанции Геленджик (Краснодарский край, Россия): широта 44.57 долгота 38.08 высота над уровнем моря 15 м.

В архиве по умолчанию представлена погода в Геленджике за последнюю неделю. Архивные данные за месяц целиком и за предыдущие месяцы, начиная с января 2011 года, Вы можете получить, выбрав интересующий диапазон дат из раскрывающегося списка и нажав кнопку "Ввод!".


*Определитесь, кто Вы:
робот инопланетянин человек

Внимание! Время в таблицах - всемирное. Для получения местного времени необходимо прибавить поправку, которая равна 3 ч.

Смотрите также архив погоды в соседних городах и на ближайших метеорологических станциях:

Погода в Новороссийске (Краснодарский край, Россия) (25 км)
Погода в Крымске (Краснодарский край, Россия) (39 км)
Погода в Джубге (Краснодарский край, Россия) (57 км)
Погода в Анапе (Краснодарский край, Россия) (72 км)
Погода в Славянске-на-Кубани (Краснодарский край, Россия) (79 км)
Погода в Горячем Ключе (Краснодарский край, Россия) (81 км)
Погода в Краснодаре (Краснодарский край, Россия) (92 км)
Погода в Туапсе (Краснодарский край, Россия) (95 км)
Погода в Горном (Краснодарский край, Россия) (100 км)
Погода в Темрюке (Краснодарский край, Россия) (100 км)

Пояснения к столбцам:

Ветер - указаны скорость ветра в м/с - средняя за 10 мин, порывы в срок и между сроками (в фигурных скобках) и направление, откуда дует ветер: С - северный, СВ - северо-восточный, В - восточный, ЮВ - юго-восточный, Ю - южный, ЮЗ - юго-западный, З - западный, СЗ - северо-западный.
Видимость - горизонтальная дальность видимости в метрах или километрах. При видимости от 1 до 10 км при отсутствии осадков обычно наблюдается дымка, при ухудшении видимости до 1 км и менее - туман. В сухую погоду видимость может ухудшаться дымом, пылью или мглою.
Явления - указаны атмосферные явления, наблюдавшиеся в срок или в последний час перед сроком; фигурными скобками обозначены явления, наблюдавшиеся между сроками (за 1-3 часа до срока); квадратными скобками обозначены град или гололедные отложения с указанием их диаметра в мм.
Облачность - указаны через наклонную черту общая и нижняя облачность в баллах и высота нижней границы облаков в метрах; квадратными скобками обозначены формы облаков: Ci - перистые, Cs - перисто-слоистые, Cc - перисто-кучевые, Ac - высококучевые, As - высокослоистые, Sc - слоисто-кучевые, Ns - слоисто-дождевые, Cu - кучевые, Cb - кучево-дождевые. Подробнее классификацию облаков см. в Атласе облаков (PDF).
T - Температура воздуха - температура, измеренная на высоте 2 м над землей.
Td - Температура точки росы - температура, при понижении до которой содержащийся в воздухе водяной пар достигнет насыщения.
f - Относительная влажность воздуха - влажноcть воздуха, измеренная на высоте 2 м над землей.
Te - Эффективная температура - температура, которую ощущает одетый по сезону человек в тени. Характеристика душности погоды. При расчете учитывается влияние влажности воздуха и скорости ветра на теплоощущения человека.
Tes - Эффективная температура на солнце - температура, которую ощущает человек, с поправкой на солнечный нагрев. Характеристика знойности погоды. Зависит от высоты солнца над горизонтом, облачности и скорости ветра. Ночью, в пасмурную погоду, а также при ветре 12 м/с и более поправка равна нулю.
P - Атмосферное давление - приведенное к уровню моря атмосферное давление.
Po - Атмосферное давление - измеренное на уровне метеостанции атмосферное давление.
Tmin - Минимальная температура - минимум температуры воздуха на высоте 2 м над землей.
Tmax - Максимальная температура - максимум температуры воздуха на высоте 2 м над землей.
R - Количество осадков - Количество выпавших осадков за период времени, мм. При наведении курсора мыши на число - период времени, за который выпало указанное количество осадков.
R24 - Количество осадков - Количество выпавших осадков за 24 часа, мм.
S - Снежный покров - Высота снежного покрова, см. При наведении курсора мыши на число - состояние снежного покрова и степень покрытия местности в баллах.